This is the latest recevied weather packets stored in our database for station/object N7NIP. If no packets are shown the sender has not sent any weather packets the latest 1 day(s).
| Time | Temp. | Humidity | Pressure | Rain* | Wind** | Luminosity | Snow |
|---|---|---|---|---|---|---|---|
| 1778012990 | 14.44° C | 80% | 1030.7 hPa | 0 mm | 0.89 m/s, 168° | 203 W/m² | - |
| 1778012687 | 14.44° C | 80% | 1030.6 hPa | 0 mm | 1.79 m/s, 123° | 199 W/m² | - |
| 1778012382 | 14.44° C | 79% | 1030.5 hPa | 0 mm | 1.79 m/s, 131° | 203 W/m² | - |
| 1778012080 | 14.44° C | 81% | 1030.6 hPa | 0 mm | 0 m/s | 189 W/m² | - |
| 1778011778 | 14.44° C | 80% | 1030.5 hPa | 0 mm | 0 m/s | 181 W/m² | - |
| 1778011475 | 14.44° C | 81% | 1030.6 hPa | 0 mm | 0.89 m/s, 110° | 184 W/m² | - |
| 1778011170 | 14.44° C | 79% | 1030.5 hPa | 0 mm | 0.45 m/s, 188° | 181 W/m² | - |
| 1778010868 | 14.44° C | 79% | 1030.7 hPa | 0 mm | 0.89 m/s, 116° | 186 W/m² | - |
| 1778010565 | 15° C | 79% | 1030.6 hPa | 0 mm | 0.89 m/s, 200° | 204 W/m² | - |
| 1778010263 | 14.44° C | 80% | 1030.6 hPa | 0 mm | 0 m/s | 209 W/m² | - |
| 1778009962 | 15° C | 80% | 1030.4 hPa | 0 mm | 0 m/s | 208 W/m² | - |
| 1778009660 | 14.44° C | 80% | 1030.7 hPa | 0 mm | 0.89 m/s, 126° | 213 W/m² | - |
| 1778009358 | 13.89° C | 82% | 1030.4 hPa | 0 mm | 0.89 m/s, 21° | 199 W/m² | - |
| 1778009056 | 13.89° C | 82% | 1030.6 hPa | 0 mm | 0.45 m/s, 277° | 189 W/m² | - |
| 1778008753 | 14.44° C | 82% | 1030.4 hPa | 0 mm | 0.89 m/s, 330° | 177 W/m² | - |
| 1778008452 | 14.44° C | 81% | 1030.5 hPa | 0 mm | 1.34 m/s, 67° | 175 W/m² | - |
| 1778008148 | 13.89° C | 82% | 1030.6 hPa | 0 mm | 0.45 m/s, 243° | 159 W/m² | - |
| 1778007844 | 13.89° C | 81% | 1030.6 hPa | 0 mm | 1.34 m/s, 202° | 156 W/m² | - |
| 1778007539 | 14.44° C | 81% | 1030.5 hPa | 0 mm | 0 m/s | 163 W/m² | - |
| 1778007236 | 14.44° C | 81% | 1030.4 hPa | 0 mm | 0.89 m/s, 104° | 170 W/m² | - |
| 1778006932 | 14.44° C | 79% | 1030.4 hPa | 0 mm | 0.89 m/s, 266° | 210 W/m² | - |
| 1778006629 | 14.44° C | 81% | 1030.4 hPa | 0 mm | 0.45 m/s, 347° | 233 W/m² | - |
| 1778006326 | 14.44° C | 82% | 1030.5 hPa | 0 mm | 0.89 m/s, 183° | 221 W/m² | - |
| 1778006023 | 13.89° C | 81% | 1030.6 hPa | 0 mm | 0.89 m/s, 82° | 208 W/m² | - |
| 1778005720 | 13.89° C | 83% | 1030.3 hPa | 0 mm | 0 m/s | 189 W/m² | - |
* Rain latest hour (hover to see other rain measurements)
** Current wind speed in m/s (hover to see current wind gust speed)